Content
SEND FEEDBACK

Daily
Averages
Monthly
Summary
United States of America

GREENSBURG, INDIANA


Home > North America > United States > Indiana
Elevation: 289 meters     Latitude: 39 20N     Longitude: 085 28W

WEATHER
 
SELECT A DAY
Number of Records: 176,029;   Date Range: 10/15/98 - 10/20/14
 
SHARE

PRINT THIS DATA

[ ← Previous Day ]
WEATHER ALMANAC - 24 MARCH, 2014
[ Next Day → ]
[ °F ]   °C
Weather ElementAverageHighLow
Temperature-0.6 °C4.4 °C (4:53 pm)-6.1 °C (6:53 am)
Dewpoint-10.1 °C-7.2 °C (8:53 pm)-12.8 °C (4:53 pm)
Humidity52.3 %78 % (5:53 am)28 % (4:53 pm)
Barometer1025.4 hPa1028.8 hPa (2:53 am)1020.3 hPa (11:53 pm)
Wind Speed7.6 km/h14.8 km/h (3:53 pm)
Weather ElementAverage
Visibility16.1 km
Wind DirectionESE (119.1 °)

Weather ElementTotal
Precipitation---
Heating Degree Days19.2 (Base 18.3)
Averaged from 23 records on 24 March, 2014
WEATHER CONDITIONS BREAKOUT
WIND DIRECTION BREAKOUT
WEATHER BY HOUR - 24 MARCH, 2014
[ °F ]   °C
Local TimeTemperatureDewpointHumidityBarometerVisibilityWind DirectionWind SpeedGust SpeedPrecipitationEventsConditions
1:53 AM-3.9 °C-8.9 °C69 %1028.1 hPa16.1 kmENE (60°)9.3 km/hClear
2:53 AM-4.4 °C-8.9 °C71 %1028.8 hPa16.1 kmCalmClear
3:53 AM-5 °C-8.9 °C74 %1028.4 hPa16.1 kmCalmClear
4:53 AM-5 °C-9.4 °C72 %1028.4 hPa16.1 kmNNE (30°)5.6 km/hClear
5:53 AM-5.6 °C-8.9 °C78 %1028.4 hPa16.1 kmNNE (20°)5.6 km/hClear
6:53 AM-6.1 °C-9.4 °C78 %1028.4 hPa16.1 kmNNE (20°)7.4 km/hClear
7:53 AM-5.6 °C-10 °C72 %1028.1 hPa16.1 kmNNE (30°)7.4 km/hClear
8:53 AM-3.9 °C-10 °C63 %1028.4 hPa16.1 kmENE (60°)9.3 km/hClear
9:53 AM-2.2 °C-11.1 °C51 %1028.8 hPa16.1 kmEast (90°)11.1 km/hMostly Cloudy
10:53 AM-1.1 °C-11.1 °C47 %1028.4 hPa16.1 kmVariable5.6 km/hPartly Cloudy
11:53 AM0 °C-11.1 °C44 %1027.4 hPa16.1 kmSW (220°)9.3 km/hScattered Clouds
12:53 PM1.7 °C-11.1 °C39 %1026.8 hPa16.1 kmWSW (250°)5.6 km/hClear
1:53 PM1.7 °C-11.7 °C37 %1025.4 hPa16.1 kmVariable5.6 km/hClear
2:53 PM2.8 °C-12.2 °C33 %1024 hPa16.1 kmSSW (200°)11.1 km/hClear
3:53 PM3.9 °C-11.7 °C32 %1023.4 hPa16.1 kmSW (220°)14.8 km/hClear
4:53 PM4.4 °C-12.8 °C28 %1022.7 hPa16.1 kmWest (270°)9.3 km/hClear
5:53 PM4.4 °C-12.2 °C29 %1022 hPa16.1 kmWNW (290°)14.8 km/hClear
6:53 PM3.9 °C-11.7 °C32 %1021.7 hPa16.1 kmWNW (300°)13 km/hClear
7:53 PM2.8 °C-9.4 °C41 %1021.7 hPa16.1 kmNW (320°)11.1 km/hClear
8:53 PM1.7 °C-7.2 °C52 %1021.3 hPa16.1 kmNorth (350°)9.3 km/hClear
9:53 PM1.1 °C-8.3 °C50 %1021.3 hPa16.1 kmNorth (10°)7.4 km/hClear
10:53 PM0 °C-7.8 °C56 %1021 hPa16.1 kmCalmClear
11:53 PM0 °C-7.8 °C56 %1020.3 hPa16.1 kmCalmClear
Hourly data recorded from KGEZ, located 0 kilometers away from Greensburg, Indiana







STORIES FROM OUR PARTNERS